This is the latest recevied weather packets stored in our database for station/object W4MLN-1. If no packets are shown the sender has not sent any weather packets the latest 10 day(s).
| Time | Temp. | Humidity | Pressure | Rain* | Wind** | Luminosity | Snow |
|---|---|---|---|---|---|---|---|
| 1778076073 | 13.89° C | 92% | 1013.1 hPa | 0.51 mm | - | 164 W/m² | - |
| 1778075758 | 13.89° C | 93% | 1013.2 hPa | 0.51 mm | - | 94 W/m² | - |
| 1778075458 | 13.89° C | 94% | 1013.3 hPa | 0.51 mm | - | 129 W/m² | - |
| 1778075159 | 13.89° C | 94% | 1013.2 hPa | 0.76 mm | - | 303 W/m² | - |
| 1778074858 | 13.89° C | 93% | 1013.4 hPa | 0.76 mm | - | 128 W/m² | - |
| 1778074558 | 13.89° C | 92% | 1013.5 hPa | 0.51 mm | - | 111 W/m² | - |
| 1778074258 | 13.89° C | 90% | 1013.4 hPa | 0.25 mm | - | 68 W/m² | - |
| 1778073958 | 13.89° C | 89% | 1013.3 hPa | 0.25 mm | - | 95 W/m² | - |
| 1778073658 | 13.89° C | 88% | 1013.1 hPa | 0.25 mm | - | 81 W/m² | - |
| 1778073359 | 13.89° C | 89% | 1012.8 hPa | 0.25 mm | - | 91 W/m² | - |
| 1778073058 | 13.89° C | 88% | 1012.8 hPa | 0.25 mm | - | 163 W/m² | - |
| 1778072744 | 13.89° C | 88% | 1012.8 hPa | 0.25 mm | - | 155 W/m² | - |
| 1778072444 | 13.89° C | 88% | 1012.8 hPa | 0.25 mm | - | 164 W/m² | - |
| 1778072144 | 13.89° C | 89% | 1013 hPa | 0.25 mm | - | 80 W/m² | - |
| 1778071844 | 13.89° C | 89% | 1012.8 hPa | 0.25 mm | - | 58 W/m² | - |
| 1778071545 | 13.89° C | 88% | 1012.7 hPa | 0 mm | - | 68 W/m² | - |
| 1778071244 | 13.89° C | 89% | 1012.7 hPa | 0 mm | - | 117 W/m² | - |
| 1778070945 | 13.89° C | 87% | 1012.6 hPa | 0 mm | - | 164 W/m² | - |
| 1778070645 | 13.89° C | 86% | 1012.6 hPa | 0 mm | - | 133 W/m² | - |
| 1778070344 | 13.89° C | 86% | 1012.6 hPa | 0 mm | - | 42 W/m² | - |
| 1778070045 | 13.89° C | 85% | 1012.5 hPa | 0 mm | - | 49 W/m² | - |
| 1778069729 | 13.89° C | 85% | 1012.5 hPa | 0 mm | - | 46 W/m² | - |
| 1778069430 | 13.89° C | 85% | 1012.5 hPa | 0 mm | - | 46 W/m² | - |
| 1778069130 | 13.33° C | 85% | 1012.3 hPa | 0 mm | - | 82 W/m² | - |
| 1778068830 | 13.33° C | 85% | 1012.5 hPa | 0 mm | - | 56 W/m² | - |
* Rain latest hour (hover to see other rain measurements)
** Current wind speed in m/s (hover to see current wind gust speed)